Regional Weather Roundup
Issued by NWS Wakefield, VA

Home | Current Version | Previous Version | Graphics & Text | Print | Product List | Glossary On
Versions: 1 2 3 4 5 6 7 8 9 10 11 12 13 14 15 16 17 18 19 20 21 22 23 24 25 26 27 28 29 30 31 32 33 34 35 36 37 38 39 40 41 42 43 44 45 46 47 48 49 50
224
ASUS41 KAKQ 061114
RWRAKQ

REGIONAL WEATHER ROUNDUP
NATIONAL WEATHER SERVICE WAKEFIELD VA
600 AM EST SAT FEB 06 2016

Note: "fair" indicates few or no clouds below 12,000 feet with no
significant weather and/or obstructions to visibility. * = Denotes
station may not report precipitation (e.g., rain,snow,etc.),
thunder or fog.

VAZ042-051-052>054-056-061200-
NORTHERN VIRGINIA

CITY           SKY/WX    TMP DP  RH WIND       PRES   REMARKS
WASH NATIONAL  FAIR      30  21  69 SW3       30.45R
DULLES         MOCLDY    23  19  85 CALM      30.43R
FORT BELVOIR   FAIR      23  21  91 CALM      30.45R
QUANTICO       FAIR      28  22  78 NW7       30.46R
FREDERICKSBRG* FAIR      24  22  89 CALM      30.45R
STAFFORD*      FAIR      21  19  95 CALM      30.48S
WARRENTON      FAIR      23  23  99 CALM      30.43R
CULPEPER*      FAIR      21  19  93 CALM      30.44R
MANASSAS*      FAIR      21  21 100 CALM      30.45R
LEESBURG*      FAIR      25  23  93 SW3       30.44R
WINCHESTER     FAIR      27  19  74 SW3       30.39R
FRONT ROYAL*   FAIR      27  19  74 S5        30.38S
LURAY*         FAIR      25  19  80 CALM      30.39S
$$

VAZ048-049-060>072-079>083-061200-
CENTRAL AND SOUTH CENTRAL VIRGINIA

CITY           SKY/WX    TMP DP  RH WIND       PRES   REMARKS
RICHMOND       FAIR      26  23  88 CALM      30.44R
CHESTERFIELD*  FAIR      23   9  54 CALM      30.46R
PETERSBURG*    FAIR      24  22  91 CALM      30.46R
HANOVER        FAIR      23  20  88 CALM      30.45S
TAPPAHANNOCK*  FAIR      24  24  98 CALM      30.45S
QUINTON*       FAIR      24  22  93 CALM      30.45R
CHARLOTTSVILLE FAIR      25  18  74 W3        30.41R
GORDONSVILLE*  FAIR      23  21  95 CALM      30.43R
ORANGE*        FAIR      23  23 100 CALM      30.45R
LOUISA*        FAIR      21  19  93 CALM      30.42R
BUMPASS*       FAIR      22  20  90 CALM      30.44R
FARMVILLE*     FAIR      22  22 100 CALM      30.43R
CREWE*         FAIR      22  22 100 CALM      30.44R
FORT PICKETT*  FAIR      24  24  99 SE6       30.44R
CHASE CITY*    FAIR      25  23  93 CALM      30.44R
CLARKSVILLE*   FAIR      25  25 100 CALM      30.44R
SOUTH HILL*    FAIR      23  20  89 CALM      30.50R
LAWRENCEVILLE* FAIR      25  23  90 CALM      30.45R
EMPORIA*       FAIR      25  23  93 CALM      30.48R
$$

VAZ088>098-061200-
SOUTHEAST VIRGINIA

CITY           SKY/WX    TMP DP  RH WIND       PRES   REMARKS
NORFOLK        FAIR      37  23  56 NE7       30.43R
VIRGINIA BEACH FAIR      32  25  75 CALM      30.43R
NORFOLK NAVAL  FAIR      33  27  78 CALM      30.46R
WEST POINT*    FAIR      24  23  95 CALM      30.47S
SALUDA*        FAIR      27  25  93 CALM      30.44S
NEWPORT NEWS   FAIR      28  24  85 CALM      30.45R
LANGLEY AFB    FAIR      30  23  76 N5        30.43R
FORT EUSTIS    FAIR      29  24  83 CALM      30.43R
WILLIAMSBURG*  FAIR      28  27  93 CALM      30.45S
HR EXEC AP*    FAIR      25  21  86 CALM      30.46R
FRANKLIN*      FAIR      26  24  93 CALM      30.46R
US460-WAKEFLD  FAIR      25  22  88 CALM      30.45R
$$

VAZ020-022-025-037-045-061200-
WEST CENTRAL AND SOUTHWEST VIRGINIA

CITY           SKY/WX    TMP DP  RH WIND       PRES   REMARKS
STAUNTON*      FAIR      25  21  85 CALM      30.40S
WAYNESBORO*    FAIR      24  14  67 SW6       30.37S
HOT SPRINGS VA FAIR      24  12  59 CALM      30.23S
LYNCHBURG      FAIR      22  17  81 CALM      30.42R
DANVILLE       FAIR      24  20  84 CALM      30.44R
SOUTH BOSTON*  FAIR      23  22  96 CALM      30.45R
MARTINSVILLE   FAIR      18  16  93 CALM      30.44R
ROANOKE        FAIR      26  17  68 CALM      30.42R
BLACKSBURG     FAIR      22  19  91 CALM      30.39R
DUBLIN*        FAIR      23  19  85 CALM      30.37R
MARION*        FAIR      22  17  83 CALM      30.35S
HILLSVILLE*    FAIR      23  15  70 S3        30.31S
RICHLANDS*     FAIR      28  10  45 CALM      30.32R
WISE*          FAIR      27  12  54 SW5       30.32S
ABINGDON*      FAIR      28  16  62 CALM      30.34F
$$

MDZ021>025-VAZ099-100-061200-
SOUTHERN MARYLAND AND THE DELMARVA PENINSULA

CITY           SKY/WX    TMP DP  RH WIND       PRES   REMARKS
PATUXENT RIVER CLOUDY    25  22  88 CALM      30.44R
BAY BRIDGE APT   N/A     28  23  80 CALM      30.44S
LEONARDTOWN    CLOUDY    27  21  80 CALM      30.45S
DOVER          CLOUDY    28  27  96 S2        30.42R
GEORGETOWN     PTCLDY    27  23  85 CALM      30.44R
EASTON         CLEAR     28  27  93 CALM      30.47R
CAMBRIDGE      CLOUDY    28  27  93 CALM      30.43S
SALISBURY      PTCLDY    26  24  92 CALM      30.44R
OCEAN CITY     CLOUDY    27  23  85 NW5       30.44R
WALLOPS ISLAND FAIR      30  22  72 N6        30.44R
ACCOMACK*      FAIR      27  23  86 N5        30.43S
$$

NCZ012>017-030>032-061200-
NORTH CENTRAL AND EASTERN NORTH CAROLINA

CITY           SKY/WX    TMP DP  RH WIND       PRES   REMARKS
ROANOKE RAPIDS FAIR      27  27 100 CALM      30.45R
RALEIGH        CLOUDY    27  24  89 CALM      30.44R
ELIZABETH CITY CLOUDY    32  26  78 NW7       30.44R
AHOSKIE*       CLOUDY    26  24  92 CALM      30.45R
EDENTON*       CLOUDY    30  28  92 CALM      30.45R
CURRITUCK*     CLOUDY    32  28  86 CALM      30.44R
KILL DEVIL HLS CLOUDY    38  27  64 CALM      30.41R
MANTEO         CLOUDY    36  29  75 CALM      30.43R
CAPE HATTERAS  CLEAR     41  28  60 VRB6      30.40R
TARBORO*       FAIR      28  27  98 CALM      30.47R
GOLDSBORO      CLOUDY    32  32 100 CALM      30.44R
WASHINGTON     PTCLDY    28  25  89 CALM      30.45R
GREENVILLE     CLOUDY    28  28 100 CALM      30.45R
NEW BERN       CLOUDY    32  29  88 CALM      30.45R
WILMINGTON     PTCLDY    33  29  85 NE5       30.41R
$$

VAZ048-061200-
ELSEWHERE

CITY           SKY/WX    TMP DP  RH WIND       PRES   REMARKS
HARRISBURG PA  CLOUDY    24  18  77 CALM      30.39R
BALTIMORE      CLOUDY    24  20  84 CALM      30.43R
ANNAPOLIS      PTCLDY    29  24  82 CALM      30.44R
ANDREWS AFB    FAIR      25  22  87 CALM      30.42R
PHILADELPHIA   MOCLDY    30  19  63 W5        30.43R
HENDERSON NC   CLOUDY    26  22  84 CALM      30.44R
GREENSBORO     CLOUDY    29  17  61 CALM      30.40R
ROCKY MOUNT    CLOUDY    29  27  92 CALM      30.46R
$$

VAZ100-061200-
MARINE

STATION/POSITION TIME  TEMP    WIND        PRES    WAVE   SWELL
                       AIR SEA DIR/SP/G            HT/PER HT/PER
                 (UTC) (F)     (DEG/KT/KT) (MB)    (FT/S) (FT/S)
BRANDYWINE LGT   1000   35     340/  5/  6 1030.2R
CAPE MAY NJ      1000   31 42   CALM  /  1 1030.1R
LEWES DE         1000      42  260/  5/  5 1030.3R
15NM E FENWICK I 1050   38 45              1030.2R   5/ 7
OCEAN-CITY-INLET 1000      41  340/  5/  5 1029.6R
WACHAPREAGUE VA  1000   31 44  340/  2/  3 1030.5R
THOMAS POINT MD  1100   33 38  300/  2/  2 1031.4R
GOOSES REEF MD   1100   36 39   50/  2/  4 1031.5R   1
COVE POINT MD    1000   33     330/  4/  5 1031.2R
SOLOMONS ISLAND  1000      41  330/  2/  3   N/A
BISHOPS HEAD MD  1000   33 40  340/  3/  4 1029.6R
POTOMAC MD       1100   35 40  320/  2/  4 1029.9R   0
CAMBRIDGE MD     1000   34 40  280/  1/  2 1029.7R
LEWISETTA VA     1000   32 42  280/  4/  4 1030.5R
RAPPAHANNOCK LGT 1000           20/ 12/ 13 1030.5R
STINGRAY PT      1100   38 42   40/ 10/ 12 1030.9R   1/ 3
YORK RVR RNG VA  1000   37     350/  9/ 10 1029.9R
YORKTOWN VA      1000   36 43  320/  6/  7 1030.5R
JAMESTOWN VA     1100   32 43  330/  2/  4   N/A     0
DOMINION TERM VA 1000   35     350/  2/  4 1030.4R
KIPTOPEKE VA     1000      43   50/  5/  6   N/A
CHES BAY BRIDGE  1000      42   10/ 10/ 12 1029.8R
CAPE HENRY VA    1000   38      20/ 12/ 14   N/A
CHESAPEAKE LGHT  1000   39      20/ 12/ 13 1030.6R
WILLOUBY STN VA  1000          350/  9/ 10   N/A
CAPE HENRY BUOY  1028      46                N/A     4/ 8   2/11
1ST LANDING BUOY 1100      42                N/A     2/ 3
CAPE CHARLES BUO 1026      45                N/A     4/ 9   3/ 9
OFFSHORE WE BUOY 1021      49                N/A     5/ 8   5/ 8
64NM E OF VA BCH 1050   43 54  360/ 10/ 16 1029.0R   6/ 8   7/ 8
DUCK PIER NC     1000   41 45   20/  9/ 10 1029.0R
44100 DUCK FRF   1024      46                N/A     5/11   2/11
44056 DUCK FRF   1011      44                N/A     4/10   2/11
OREGON INLET NC  1000   41 46   40/  5/  7 1029.4R
HATTERAS NC      1000      53  350/ 13/ 15 1028.4F
DIAMOND SHLS NC  1050   46 73  360/ 17/ 21 1028.6R   7/11   7/11
$$




USA.gov is the U.S. government's official web portal to all federal, state and local government web resources and services.